Home   Weather   Cork   Past weeks

Flag for Ireland Past Weather in Cork, Ireland — Yesterday and Last 2 Weeks

Now
52 °F

Overcast.


Feels Like: 51 °F
Forecast: 39 / 54 °F
Wind: 5 mph from Southeast

Location: Cork Airport

Current Time: Apr 23, 2017 at 1:31:33 pm

Latest Report: Apr 23, 2017 at 12:00 pm


Visibility: 31 mi

Pressure: 30.35 "Hg

Humidity: 80%

Dew Point: 46 °F

Location of CorkLocation

Past Weather in Cork — Graph

°F

Cork Temperature Yesterday

Maximum temperature yesterday: 55 °F (at 12:00 pm)
Minimum temperature yesterday: 47 °F (at 5:00 am)
Average temperature yesterday: 51 °F

High & Low Weather Summary for the Past Weeks

 TemperatureHumidityPressure
High59 °F (Apr 21, 2:00 pm)99% (Apr 9, 12:00 am)30.65 "Hg (Apr 9, 12:00 am)
Low40 °F (Apr 11, 6:00 am)47% (Apr 21, 2:00 pm)30.02 "Hg (Apr 9, 3:00 am)
Average49 °F78%30.34 "Hg
* Reported Apr 8 12:00 pm — Apr 23 12:00 pm, Cork, Weather by CustomWeather, © 2017

Note: Actual official high and low records may vary slightly from our data, if they occured in-between our weather recording intervals... More about our weather records

Advertising

Cork Weather History for the Previous 24 Hours

Scroll right to see more
 ConditionsComfort  
Time TempWeatherWind HumidityBarometerVisibility
12:00 pm
Sun, Apr 23
52 °FOvercast.5 mph80%30.35 "Hg31 mi
11:00 am52 °FOvercast.3 mph78%30.36 "Hg31 mi
10:00 am51 °FOvercast.1 mph76%30.37 "Hg31 mi
9:00 am51 °FOvercast.1 mph76%30.37 "Hg34 mi
8:00 am50 °FOvercast.2 mph80%30.37 "Hg31 mi
7:00 am49 °FOvercast.3 mph80%30.36 "Hg31 mi
6:00 am48 °FOvercast.2 mph80%30.37 "Hg25 mi
5:00 am49 °FOvercast.3 mph80%30.38 "Hg31 mi
4:00 am49 °FOvercast.2 mph79%30.38 "Hg31 mi
3:00 am49 °FOvercast.2 mph78%30.40 "Hg31 mi
2:00 am49 °FOvercast.2 mph76%30.41 "Hg31 mi
1:00 am50 °FOvercast.2 mph76%30.42 "Hg31 mi
12:00 am50 °FOvercast.3 mph76%30.43 "Hg31 mi
11:00 pm
Sat, Apr 22
50 °FOvercast.2 mph79%30.43 "Hg31 mi
10:00 pm50 °FOvercast.1 mph82%30.44 "Hg31 mi
9:00 pm50 °FOvercast.1 mph83%30.43 "Hg31 mi
8:00 pm51 °FOvercast.2 mph77%30.42 "Hg31 mi
7:00 pm54 °FOvercast.2 mph63%30.42 "Hg31 mi
6:00 pm55 °FOvercast.1 mph62%30.43 "Hg31 mi
5:00 pm54 °FOvercast.3 mph70%30.43 "Hg31 mi
4:00 pm53 °FOvercast.1 mph70%30.45 "Hg37 mi
3:00 pm53 °FOvercast.2 mph70%30.46 "Hg37 mi
2:00 pm53 °FOvercast.3 mph66%30.47 "Hg34 mi
1:00 pm54 °FOvercast.3 mph60%30.48 "Hg34 mi
Weather by CustomWeather, © 2017

See weather overviewHow to use our weather pages